Year,Month,Day,Hour,Minute,Value (Times are PST for temperature in C)
2010,09,30,00,00,9.70
2010,09,30,00,01,9.70
2010,09,30,00,02,9.60
2010,09,30,00,03,9.60
2010,09,30,00,04,9.60
2010,09,30,00,05,9.60
2010,09,30,00,06,9.60
2010,09,30,00,07,9.60
2010,09,30,00,08,9.60
2010,09,30,00,09,9.60
2010,09,30,00,10,9.50
2010,09,30,00,11,9.50
2010,09,30,00,12,9.50
2010,09,30,00,13,9.50
2010,09,30,00,14,9.40
2010,09,30,00,15,9.40
2010,09,30,00,16,9.40
2010,09,30,00,17,9.40
2010,09,30,00,18,9.40
2010,09,30,00,19,9.40
2010,09,30,00,20,9.40
2010,09,30,00,21,9.40
2010,09,30,00,22,9.40
2010,09,30,00,23,9.40
2010,09,30,00,24,9.40
2010,09,30,00,25,9.40
2010,09,30,00,26,9.40
2010,09,30,00,27,9.40
2010,09,30,00,28,9.40
2010,09,30,00,29,9.40
2010,09,30,00,30,9.40
2010,09,30,00,31,9.40
2010,09,30,00,32,9.40
2010,09,30,00,33,9.40
2010,09,30,00,34,9.40
2010,09,30,00,35,9.40
2010,09,30,00,36,9.40
2010,09,30,00,37,9.40
2010,09,30,00,38,9.40
2010,09,30,00,39,9.40
2010,09,30,00,40,9.40
2010,09,30,00,41,9.40
2010,09,30,00,42,9.50
2010,09,30,00,43,9.50
2010,09,30,00,44,9.50
2010,09,30,00,45,9.50
2010,09,30,00,46,9.50
2010,09,30,00,47,9.50
2010,09,30,00,48,9.50
2010,09,30,00,49,9.40
2010,09,30,00,50,9.40
2010,09,30,00,51,9.40
2010,09,30,00,52,9.40
2010,09,30,00,53,9.40
2010,09,30,00,54,9.40
2010,09,30,00,55,9.40
2010,09,30,00,56,9.40
2010,09,30,00,57,9.40
2010,09,30,00,58,9.40
2010,09,30,00,59,9.40
2010,09,30,01,00,9.40
2010,09,30,01,01,9.40
2010,09,30,01,02,9.40
2010,09,30,01,03,9.40
2010,09,30,01,04,9.40
2010,09,30,01,05,9.40
2010,09,30,01,06,9.40
2010,09,30,01,07,9.40
2010,09,30,01,08,9.30
2010,09,30,01,09,9.30
2010,09,30,01,10,9.30
2010,09,30,01,11,9.30
2010,09,30,01,12,9.20
2010,09,30,01,13,9.20
2010,09,30,01,14,9.20
2010,09,30,01,15,9.20
2010,09,30,01,16,9.20
2010,09,30,01,17,9.20
2010,09,30,01,18,9.20
2010,09,30,01,19,9.20
2010,09,30,01,20,9.10
2010,09,30,01,21,9.10
2010,09,30,01,22,9.10
2010,09,30,01,23,9.10
2010,09,30,01,24,9.10
2010,09,30,01,25,9.10
2010,09,30,01,26,9.10
2010,09,30,01,27,9.20
2010,09,30,01,28,9.20
2010,09,30,01,29,9.20
2010,09,30,01,30,9.20
2010,09,30,01,31,9.20
2010,09,30,01,32,9.20
2010,09,30,01,33,9.10
2010,09,30,01,34,9.10
2010,09,30,01,35,9.20
2010,09,30,01,36,9.20
2010,09,30,01,37,9.20
2010,09,30,01,38,9.20
2010,09,30,01,39,9.20
2010,09,30,01,40,9.20
2010,09,30,01,41,9.20
2010,09,30,01,42,9.20
2010,09,30,01,43,9.20
2010,09,30,01,44,9.20
2010,09,30,01,45,9.20
2010,09,30,01,46,9.20
2010,09,30,01,47,9.20
2010,09,30,01,48,9.20
2010,09,30,01,49,9.20
2010,09,30,01,50,9.20
2010,09,30,01,51,9.20
2010,09,30,01,52,9.20
2010,09,30,01,53,9.20
2010,09,30,01,54,9.20
2010,09,30,01,55,9.20
2010,09,30,01,56,9.10
2010,09,30,01,57,9.10
2010,09,30,01,58,9.10
2010,09,30,01,59,9.10
2010,09,30,02,00,9.10
2010,09,30,02,01,9.10
2010,09,30,02,02,9.10
2010,09,30,02,03,9.10
2010,09,30,02,04,9.10
2010,09,30,02,05,9.10
2010,09,30,02,06,9.10
2010,09,30,02,07,9.10
2010,09,30,02,08,9.10
2010,09,30,02,09,9.10
2010,09,30,02,10,9.10
2010,09,30,02,11,9.10
2010,09,30,02,12,9.10
2010,09,30,02,13,9.00
2010,09,30,02,14,9.00
2010,09,30,02,15,9.00
2010,09,30,02,16,9.00
2010,09,30,02,17,9.00
2010,09,30,02,18,9.00
2010,09,30,02,19,9.00
2010,09,30,02,20,8.90
2010,09,30,02,21,8.90
2010,09,30,02,22,8.90
2010,09,30,02,23,8.90
2010,09,30,02,24,8.90
2010,09,30,02,25,8.90
2010,09,30,02,26,8.90
2010,09,30,02,27,8.90
2010,09,30,02,28,8.80
2010,09,30,02,29,8.80
2010,09,30,02,30,8.80
2010,09,30,02,31,8.80
2010,09,30,02,32,8.80
2010,09,30,02,33,8.80
2010,09,30,02,34,8.80
2010,09,30,02,35,8.80
2010,09,30,02,36,8.70
2010,09,30,02,37,8.70
2010,09,30,02,38,8.70
2010,09,30,02,39,8.70
2010,09,30,02,40,8.70
2010,09,30,02,41,8.70
2010,09,30,02,42,8.70
2010,09,30,02,43,8.70
2010,09,30,02,44,8.70
2010,09,30,02,45,8.70
2010,09,30,02,46,8.70
2010,09,30,02,47,8.70
2010,09,30,02,48,8.70
2010,09,30,02,49,8.70
2010,09,30,02,50,8.70
2010,09,30,02,51,8.60
2010,09,30,02,52,8.60
2010,09,30,02,53,8.60
2010,09,30,02,54,8.60
2010,09,30,02,55,8.60
2010,09,30,02,56,8.60
2010,09,30,02,57,8.60
2010,09,30,02,58,8.50
2010,09,30,02,59,8.50
2010,09,30,03,00,8.50
2010,09,30,03,01,8.40
2010,09,30,03,02,8.40
2010,09,30,03,03,8.40
2010,09,30,03,04,8.40
2010,09,30,03,05,8.40
2010,09,30,03,06,8.40
2010,09,30,03,07,8.40
2010,09,30,03,08,8.40
2010,09,30,03,09,8.40
2010,09,30,03,10,8.40
2010,09,30,03,11,8.30
2010,09,30,03,12,8.30
2010,09,30,03,13,8.30
2010,09,30,03,14,8.30
2010,09,30,03,15,8.30
2010,09,30,03,16,8.30
2010,09,30,03,17,8.30
2010,09,30,03,18,8.30
2010,09,30,03,19,8.30
2010,09,30,03,20,8.30
2010,09,30,03,21,8.30
2010,09,30,03,22,8.30
2010,09,30,03,23,8.30
2010,09,30,03,24,8.30
2010,09,30,03,25,8.30
2010,09,30,03,26,8.30
2010,09,30,03,27,8.30
2010,09,30,03,28,8.30
2010,09,30,03,29,8.30
2010,09,30,03,30,8.30
2010,09,30,03,31,8.30
2010,09,30,03,32,8.30
2010,09,30,03,33,8.30
2010,09,30,03,34,8.30
2010,09,30,03,35,8.30
2010,09,30,03,36,8.30
2010,09,30,03,37,8.30
2010,09,30,03,38,8.30
2010,09,30,03,39,8.30
2010,09,30,03,40,8.30
2010,09,30,03,41,8.40
2010,09,30,03,42,8.40
2010,09,30,03,43,8.40
2010,09,30,03,44,8.40
2010,09,30,03,45,8.50
2010,09,30,03,46,8.50
2010,09,30,03,47,8.50
2010,09,30,03,48,8.50
2010,09,30,03,49,8.50
2010,09,30,03,50,8.50
2010,09,30,03,51,8.40
2010,09,30,03,52,8.40
2010,09,30,03,53,8.40
2010,09,30,03,54,8.40
2010,09,30,03,55,8.40
2010,09,30,03,56,8.40
2010,09,30,03,57,8.40
2010,09,30,03,58,8.40
2010,09,30,03,59,8.40
2010,09,30,04,00,8.30
2010,09,30,04,01,8.30
2010,09,30,04,02,8.30
2010,09,30,04,03,8.30
2010,09,30,04,04,8.30
2010,09,30,04,05,8.30
2010,09,30,04,06,8.20
2010,09,30,04,07,8.20
2010,09,30,04,08,8.20
2010,09,30,04,09,8.20
2010,09,30,04,10,8.20
2010,09,30,04,11,8.20
2010,09,30,04,12,8.20
2010,09,30,04,13,8.20
2010,09,30,04,14,8.20
2010,09,30,04,15,8.20
2010,09,30,04,16,8.20
2010,09,30,04,17,8.20
2010,09,30,04,18,8.10
2010,09,30,04,19,8.10
2010,09,30,04,20,8.10
2010,09,30,04,21,8.10
2010,09,30,04,22,8.10
2010,09,30,04,23,8.10
2010,09,30,04,24,8.10
2010,09,30,04,25,8.10
2010,09,30,04,26,8.10
2010,09,30,04,27,8.00
2010,09,30,04,28,8.00
2010,09,30,04,29,7.90
2010,09,30,04,30,8.00
2010,09,30,04,31,7.90
2010,09,30,04,32,7.90
2010,09,30,04,33,7.90
2010,09,30,04,34,7.90
2010,09,30,04,35,7.90
2010,09,30,04,36,7.90
2010,09,30,04,37,7.90
2010,09,30,04,38,7.80
2010,09,30,04,39,7.80
2010,09,30,04,40,7.80
2010,09,30,04,41,7.80
2010,09,30,04,42,7.80
2010,09,30,04,43,7.80
2010,09,30,04,44,7.80
2010,09,30,04,45,7.80
2010,09,30,04,46,7.70
2010,09,30,04,47,7.70
2010,09,30,04,48,7.70
2010,09,30,04,49,7.70
2010,09,30,04,50,7.70
2010,09,30,04,51,7.70
2010,09,30,04,52,7.70
2010,09,30,04,53,7.70
2010,09,30,04,54,7.70
2010,09,30,04,55,7.70
2010,09,30,04,56,7.70
2010,09,30,04,57,7.70
2010,09,30,04,58,7.70
2010,09,30,04,59,7.70
2010,09,30,05,00,7.70
2010,09,30,05,01,7.70
2010,09,30,05,02,7.70
2010,09,30,05,03,7.70
2010,09,30,05,04,7.70
2010,09,30,05,05,7.70
2010,09,30,05,06,7.70
2010,09,30,05,07,7.60
2010,09,30,05,08,7.60
2010,09,30,05,09,7.60
2010,09,30,05,10,7.60
2010,09,30,05,11,7.60
2010,09,30,05,12,7.60
2010,09,30,05,13,7.60
2010,09,30,05,14,7.60
2010,09,30,05,15,7.60
2010,09,30,05,16,7.60
2010,09,30,05,17,7.60
2010,09,30,05,18,7.60
2010,09,30,05,19,7.60
2010,09,30,05,20,7.60
2010,09,30,05,21,7.50
2010,09,30,05,22,7.50
2010,09,30,05,23,7.50
2010,09,30,05,24,7.50
2010,09,30,05,25,7.50
2010,09,30,05,26,7.50
2010,09,30,05,27,7.50
2010,09,30,05,28,7.50
2010,09,30,05,29,7.50
2010,09,30,05,30,7.50
2010,09,30,05,31,7.50
2010,09,30,05,32,7.50
2010,09,30,05,33,7.50
2010,09,30,05,34,7.50
2010,09,30,05,35,7.50
2010,09,30,05,36,7.50
2010,09,30,05,37,7.50
2010,09,30,05,38,7.50
2010,09,30,05,39,7.50
2010,09,30,05,40,7.50
2010,09,30,05,41,7.50
2010,09,30,05,42,7.40
2010,09,30,05,43,7.50
2010,09,30,05,44,7.40
2010,09,30,05,45,7.40
2010,09,30,05,46,7.40
2010,09,30,05,47,7.50
2010,09,30,05,48,7.50
2010,09,30,05,49,7.50
2010,09,30,05,50,7.50
2010,09,30,05,51,7.50
2010,09,30,05,52,7.50
2010,09,30,05,53,7.50
2010,09,30,05,54,7.50
2010,09,30,05,55,7.50
2010,09,30,05,56,7.50
2010,09,30,05,57,7.50
2010,09,30,05,58,7.50
2010,09,30,05,59,7.60
2010,09,30,06,00,7.60
2010,09,30,06,01,7.60
2010,09,30,06,02,7.60
2010,09,30,06,03,7.60
2010,09,30,06,04,7.60
2010,09,30,06,05,7.60
2010,09,30,06,06,7.50
2010,09,30,06,07,7.50
2010,09,30,06,08,7.50
2010,09,30,06,09,7.50
2010,09,30,06,10,7.40
2010,09,30,06,11,7.40
2010,09,30,06,12,7.40
2010,09,30,06,13,7.50
2010,09,30,06,14,7.50
2010,09,30,06,15,7.50
2010,09,30,06,16,7.50
2010,09,30,06,17,7.50
2010,09,30,06,18,7.50
2010,09,30,06,19,7.50
2010,09,30,06,20,7.50
2010,09,30,06,21,7.50
2010,09,30,06,22,7.50
2010,09,30,06,23,7.50
2010,09,30,06,24,7.50
2010,09,30,06,25,7.50
2010,09,30,06,26,7.50
2010,09,30,06,27,7.50
2010,09,30,06,28,7.50
2010,09,30,06,29,7.40
2010,09,30,06,30,7.40
2010,09,30,06,31,7.40
2010,09,30,06,32,7.40
2010,09,30,06,33,7.40
2010,09,30,06,34,7.40
2010,09,30,06,35,7.40
2010,09,30,06,36,7.40
2010,09,30,06,37,7.40
2010,09,30,06,38,7.40
2010,09,30,06,39,7.40
2010,09,30,06,40,7.40
2010,09,30,06,41,7.40
2010,09,30,06,42,7.40
2010,09,30,06,43,7.40
2010,09,30,06,44,7.40
2010,09,30,06,45,7.40
2010,09,30,06,46,7.40
2010,09,30,06,47,7.40
2010,09,30,06,48,7.40
2010,09,30,06,49,7.40
2010,09,30,06,50,7.40
2010,09,30,06,51,7.40
2010,09,30,06,52,7.40
2010,09,30,06,53,7.40
2010,09,30,06,54,7.40
2010,09,30,06,55,7.40
2010,09,30,06,56,7.40
2010,09,30,06,57,7.50
2010,09,30,06,58,7.50
2010,09,30,06,59,7.50
2010,09,30,07,00,7.60
2010,09,30,07,01,7.60
2010,09,30,07,02,7.60
2010,09,30,07,03,7.60
2010,09,30,07,04,7.60
2010,09,30,07,05,7.50
2010,09,30,07,06,7.50
2010,09,30,07,07,7.50
2010,09,30,07,08,7.40
2010,09,30,07,09,7.40
2010,09,30,07,10,7.40
2010,09,30,07,11,7.40
2010,09,30,07,12,7.30
2010,09,30,07,13,7.30
2010,09,30,07,14,7.30
2010,09,30,07,15,7.30
2010,09,30,07,16,7.30
2010,09,30,07,17,7.30
2010,09,30,07,18,7.30
2010,09,30,07,19,7.30
2010,09,30,07,20,7.30
2010,09,30,07,21,7.30
2010,09,30,07,22,7.30
2010,09,30,07,23,7.30
2010,09,30,07,24,7.30
2010,09,30,07,25,7.30
2010,09,30,07,26,7.30
2010,09,30,07,27,7.40
2010,09,30,07,28,7.40
2010,09,30,07,29,7.40
2010,09,30,07,30,7.40
2010,09,30,07,31,7.40
2010,09,30,07,32,7.40
2010,09,30,07,33,7.40
2010,09,30,07,34,7.40
2010,09,30,07,35,7.30
2010,09,30,07,36,7.30
2010,09,30,07,37,7.40
2010,09,30,07,38,7.40
2010,09,30,07,39,7.40
2010,09,30,07,40,7.40
2010,09,30,07,41,7.40
2010,09,30,07,42,7.40
2010,09,30,07,43,7.40
2010,09,30,07,44,7.40
2010,09,30,07,45,7.40
2010,09,30,07,46,7.40
2010,09,30,07,47,7.40
2010,09,30,07,48,7.40
2010,09,30,07,49,7.40
2010,09,30,07,50,7.40
2010,09,30,07,51,7.40
2010,09,30,07,52,7.40
2010,09,30,07,53,7.50
2010,09,30,07,54,7.50
2010,09,30,07,55,7.50
2010,09,30,07,56,7.50
2010,09,30,07,57,7.60
2010,09,30,07,58,7.60
2010,09,30,07,59,7.60
2010,09,30,08,00,7.60
2010,09,30,08,01,7.60
2010,09,30,08,02,7.60
2010,09,30,08,03,7.70
2010,09,30,08,04,7.70
2010,09,30,08,05,7.70
2010,09,30,08,06,7.80
2010,09,30,08,07,7.80
2010,09,30,08,08,7.80
2010,09,30,08,09,7.90
2010,09,30,08,10,7.90
2010,09,30,08,11,7.90
2010,09,30,08,12,7.90
2010,09,30,08,13,8.00
2010,09,30,08,14,8.10
2010,09,30,08,15,8.10
2010,09,30,08,16,8.20
2010,09,30,08,17,8.20
2010,09,30,08,18,8.30
2010,09,30,08,19,8.30
2010,09,30,08,20,8.30
2010,09,30,08,21,8.30
2010,09,30,08,22,8.40
2010,09,30,08,23,8.40
2010,09,30,08,24,8.50
2010,09,30,08,25,8.60
2010,09,30,08,26,8.60
2010,09,30,08,27,8.70
2010,09,30,08,28,8.70
2010,09,30,08,29,8.80
2010,09,30,08,30,8.80
2010,09,30,08,31,8.80
2010,09,30,08,32,8.90
2010,09,30,08,33,8.90
2010,09,30,08,34,8.90
2010,09,30,08,35,8.90
2010,09,30,08,36,9.00
2010,09,30,08,37,9.00
2010,09,30,08,38,9.10
2010,09,30,08,39,9.10
2010,09,30,08,40,9.20
2010,09,30,08,41,9.20
2010,09,30,08,42,9.30
2010,09,30,08,43,9.30
2010,09,30,08,44,9.40
2010,09,30,08,45,9.40
2010,09,30,08,46,9.50
2010,09,30,08,47,9.60
2010,09,30,08,48,9.60
2010,09,30,08,49,9.70
2010,09,30,08,50,9.70
2010,09,30,08,51,9.80
2010,09,30,08,52,9.80
2010,09,30,08,53,9.90
2010,09,30,08,54,10.00
2010,09,30,08,55,10.00
2010,09,30,08,56,10.10
2010,09,30,08,57,10.10
2010,09,30,08,58,10.20
2010,09,30,08,59,10.20
2010,09,30,09,00,10.30
2010,09,30,09,01,10.30
2010,09,30,09,02,10.40
2010,09,30,09,03,10.50
2010,09,30,09,04,10.60
2010,09,30,09,05,10.60
2010,09,30,09,06,10.70
2010,09,30,09,07,10.80
2010,09,30,09,08,10.80
2010,09,30,09,09,10.90
2010,09,30,09,10,10.90
2010,09,30,09,11,11.00
2010,09,30,09,12,11.00
2010,09,30,09,13,11.10
2010,09,30,09,14,11.10
2010,09,30,09,15,11.20
2010,09,30,09,16,11.20
2010,09,30,09,17,11.30
2010,09,30,09,18,11.40
2010,09,30,09,19,11.50
2010,09,30,09,20,11.60
2010,09,30,09,21,11.60
2010,09,30,09,22,11.70
2010,09,30,09,23,11.80
2010,09,30,09,24,11.90
2010,09,30,09,25,11.90
2010,09,30,09,26,12.00
2010,09,30,09,27,12.10
2010,09,30,09,28,12.20
2010,09,30,09,29,12.20
2010,09,30,09,30,12.30
2010,09,30,09,31,12.50
2010,09,30,09,32,12.60
2010,09,30,09,33,12.70
2010,09,30,09,34,12.80
2010,09,30,09,35,12.90
2010,09,30,09,36,13.00
2010,09,30,09,37,13.10
2010,09,30,09,38,13.20
2010,09,30,09,39,13.30
2010,09,30,09,40,13.40
2010,09,30,09,41,13.50
2010,09,30,09,42,13.60
2010,09,30,09,43,13.70
2010,09,30,09,44,13.80
2010,09,30,09,45,13.90
2010,09,30,09,46,13.90
2010,09,30,09,47,14.00
2010,09,30,09,48,14.10
2010,09,30,09,49,14.20
2010,09,30,09,50,14.30
2010,09,30,09,51,14.30
2010,09,30,09,52,14.40
2010,09,30,09,53,14.40
2010,09,30,09,54,14.50
2010,09,30,09,55,14.50
2010,09,30,09,56,14.60
2010,09,30,09,57,14.60
2010,09,30,09,58,14.70
2010,09,30,09,59,14.90
2010,09,30,10,00,15.00
2010,09,30,10,01,15.00
2010,09,30,10,02,15.00
2010,09,30,10,03,15.00
2010,09,30,10,04,15.00
2010,09,30,10,05,15.00
2010,09,30,10,06,15.10
2010,09,30,10,07,15.10
2010,09,30,10,08,15.20
2010,09,30,10,09,15.30
2010,09,30,10,10,15.40
2010,09,30,10,11,15.50
2010,09,30,10,12,15.60
2010,09,30,10,13,15.70
2010,09,30,10,14,15.80
2010,09,30,10,15,15.80
2010,09,30,10,16,15.90
2010,09,30,10,17,16.00
2010,09,30,10,18,16.00
2010,09,30,10,19,16.10
2010,09,30,10,20,16.10
2010,09,30,10,21,16.20
2010,09,30,10,22,16.30
2010,09,30,10,23,16.30
2010,09,30,10,24,16.40
2010,09,30,10,25,16.40
2010,09,30,10,26,16.50
2010,09,30,10,27,16.50
2010,09,30,10,28,16.50
2010,09,30,10,29,16.50
2010,09,30,10,30,16.50
2010,09,30,10,31,16.50
2010,09,30,10,32,16.50
2010,09,30,10,33,16.60
2010,09,30,10,34,16.70
2010,09,30,10,35,16.70
2010,09,30,10,36,16.80
2010,09,30,10,37,16.90
2010,09,30,10,38,16.90
2010,09,30,10,39,16.90
2010,09,30,10,40,16.90
2010,09,30,10,41,17.00
2010,09,30,10,42,17.10
2010,09,30,10,43,17.10
2010,09,30,10,44,17.10
2010,09,30,10,45,17.10
2010,09,30,10,46,17.10
2010,09,30,10,47,17.10
2010,09,30,10,48,17.10
2010,09,30,10,49,17.10
2010,09,30,10,50,17.00
2010,09,30,10,51,17.00
2010,09,30,10,52,17.00
2010,09,30,10,53,17.00
2010,09,30,10,54,17.10
2010,09,30,10,55,17.10
2010,09,30,10,56,17.20
2010,09,30,10,57,17.30
2010,09,30,10,58,17.30
2010,09,30,10,59,17.30
2010,09,30,11,00,17.30
2010,09,30,11,01,17.30
2010,09,30,11,02,17.30
2010,09,30,11,03,17.30
2010,09,30,11,04,17.30
2010,09,30,11,05,17.30
2010,09,30,11,06,17.30
2010,09,30,11,07,17.30
2010,09,30,11,08,17.30
2010,09,30,11,09,17.30
2010,09,30,11,10,17.30
2010,09,30,11,11,17.30
2010,09,30,11,12,17.40
2010,09,30,11,13,17.40
2010,09,30,11,14,17.50
2010,09,30,11,15,17.50
2010,09,30,11,16,17.60
2010,09,30,11,17,17.70
2010,09,30,11,18,17.80
2010,09,30,11,19,17.90
2010,09,30,11,20,18.00
2010,09,30,11,21,18.00
2010,09,30,11,22,18.00
2010,09,30,11,23,18.10
2010,09,30,11,24,18.10
2010,09,30,11,25,18.20
2010,09,30,11,26,18.20
2010,09,30,11,27,18.20
2010,09,30,11,28,18.20
2010,09,30,11,29,18.20
2010,09,30,11,30,18.10
2010,09,30,11,31,18.10
2010,09,30,11,32,18.10
2010,09,30,11,33,18.10
2010,09,30,11,34,18.20
2010,09,30,11,35,18.20
2010,09,30,11,36,18.30
2010,09,30,11,37,18.40
2010,09,30,11,38,18.40
2010,09,30,11,39,18.50
2010,09,30,11,40,18.60
2010,09,30,11,41,18.70
2010,09,30,11,42,18.80
2010,09,30,11,43,18.80
2010,09,30,11,44,18.80
2010,09,30,11,45,18.80
2010,09,30,11,46,18.80
2010,09,30,11,47,18.80
2010,09,30,11,48,18.90
2010,09,30,11,49,18.90
2010,09,30,11,50,18.80
2010,09,30,11,51,18.80
2010,09,30,11,52,18.80
2010,09,30,11,53,18.80
2010,09,30,11,54,18.80
2010,09,30,11,55,18.90
2010,09,30,11,56,19.00
2010,09,30,11,57,19.10
2010,09,30,11,58,19.20
2010,09,30,11,59,19.20
2010,09,30,12,00,19.30
2010,09,30,12,01,19.30
2010,09,30,12,02,19.40
2010,09,30,12,03,19.50
2010,09,30,12,04,19.50
2010,09,30,12,05,19.60
2010,09,30,12,06,19.60
2010,09,30,12,07,19.60
2010,09,30,12,08,19.70
2010,09,30,12,09,19.80
2010,09,30,12,10,19.80
2010,09,30,12,11,19.90
2010,09,30,12,12,19.90
2010,09,30,12,13,19.80
2010,09,30,12,14,19.80
2010,09,30,12,15,19.80
2010,09,30,12,16,19.80
2010,09,30,12,17,19.80
2010,09,30,12,18,19.90
2010,09,30,12,19,19.90
2010,09,30,12,20,20.00
2010,09,30,12,21,19.90
2010,09,30,12,22,19.90
2010,09,30,12,23,19.90
2010,09,30,12,24,19.90
2010,09,30,12,25,20.00
2010,09,30,12,26,20.10
2010,09,30,12,27,20.10
2010,09,30,12,28,20.20
2010,09,30,12,29,20.30
2010,09,30,12,30,20.40
2010,09,30,12,31,20.50
2010,09,30,12,32,20.70
2010,09,30,12,33,20.70
2010,09,30,12,34,20.70
2010,09,30,12,35,20.80
2010,09,30,12,36,20.80
2010,09,30,12,37,20.90
2010,09,30,12,38,20.90
2010,09,30,12,39,21.00
2010,09,30,12,40,21.00
2010,09,30,12,41,21.00
2010,09,30,12,42,21.00
2010,09,30,12,43,21.00
2010,09,30,12,44,21.10
2010,09,30,12,45,21.10
2010,09,30,12,46,21.10
2010,09,30,12,47,21.00
2010,09,30,12,48,20.90
2010,09,30,12,49,20.80
2010,09,30,12,50,20.80
2010,09,30,12,51,20.70
2010,09,30,12,52,20.70
2010,09,30,12,53,20.60
2010,09,30,12,54,20.70
2010,09,30,12,55,20.70
2010,09,30,12,56,20.60
2010,09,30,12,57,20.70
2010,09,30,12,58,20.70
2010,09,30,12,59,20.80
2010,09,30,13,00,20.80
2010,09,30,13,01,20.90
2010,09,30,13,02,21.00
2010,09,30,13,03,21.10
2010,09,30,13,04,21.20
2010,09,30,13,05,21.40
2010,09,30,13,06,21.50
2010,09,30,13,07,21.60
2010,09,30,13,08,21.60
2010,09,30,13,09,21.70
2010,09,30,13,10,21.70
2010,09,30,13,11,21.70
2010,09,30,13,12,21.70
2010,09,30,13,13,21.70
2010,09,30,13,14,21.80
2010,09,30,13,15,21.80
2010,09,30,13,16,21.80
2010,09,30,13,17,21.80
2010,09,30,13,18,21.90
2010,09,30,13,19,21.90
2010,09,30,13,20,22.00
2010,09,30,13,21,22.00
2010,09,30,13,22,22.10
2010,09,30,13,23,22.20
2010,09,30,13,24,22.30
2010,09,30,13,25,22.20
2010,09,30,13,26,22.30
2010,09,30,13,27,22.30
2010,09,30,13,28,22.30
2010,09,30,13,29,22.30
2010,09,30,13,30,22.30
2010,09,30,13,31,22.20
2010,09,30,13,32,22.20
2010,09,30,13,33,22.20
2010,09,30,13,34,22.10
2010,09,30,13,35,22.10
2010,09,30,13,36,22.10
2010,09,30,13,37,22.00
2010,09,30,13,38,21.90
2010,09,30,13,39,21.90
2010,09,30,13,40,21.90
2010,09,30,13,41,22.00
2010,09,30,13,42,22.00
2010,09,30,13,43,22.10
2010,09,30,13,44,22.10
2010,09,30,13,45,22.20
2010,09,30,13,46,22.20
2010,09,30,13,47,22.30
2010,09,30,13,48,22.30
2010,09,30,13,49,22.30
2010,09,30,13,50,22.40
2010,09,30,13,51,22.40
2010,09,30,13,52,22.40
2010,09,30,13,53,22.40
2010,09,30,13,54,22.30
2010,09,30,13,55,22.30
2010,09,30,13,56,22.30
2010,09,30,13,57,22.30
2010,09,30,13,58,22.40
2010,09,30,13,59,22.40
2010,09,30,14,00,22.50
2010,09,30,14,01,22.50
2010,09,30,14,02,22.60
2010,09,30,14,03,22.60
2010,09,30,14,04,22.50
2010,09,30,14,05,22.50
2010,09,30,14,06,22.50
2010,09,30,14,07,22.50
2010,09,30,14,08,22.60
2010,09,30,14,09,22.60
2010,09,30,14,10,22.60
2010,09,30,14,11,22.60
2010,09,30,14,12,22.70
2010,09,30,14,13,22.70
2010,09,30,14,14,22.80
2010,09,30,14,15,22.80
2010,09,30,14,16,22.80
2010,09,30,14,17,22.80
2010,09,30,14,18,22.80
2010,09,30,14,19,22.80
2010,09,30,14,20,22.80
2010,09,30,14,21,22.90
2010,09,30,14,22,22.90
2010,09,30,14,23,22.90
2010,09,30,14,24,22.90
2010,09,30,14,25,22.90
2010,09,30,14,26,22.90
2010,09,30,14,27,22.90
2010,09,30,14,28,22.90
2010,09,30,14,29,22.80
2010,09,30,14,30,22.80
2010,09,30,14,31,22.80
2010,09,30,14,32,22.80
2010,09,30,14,33,22.80
2010,09,30,14,34,22.80
2010,09,30,14,35,22.80
2010,09,30,14,36,22.80
2010,09,30,14,37,22.80
2010,09,30,14,38,22.80
2010,09,30,14,39,22.80
2010,09,30,14,40,22.80
2010,09,30,14,41,22.90
2010,09,30,14,42,22.90
2010,09,30,14,43,22.90
2010,09,30,14,44,22.90
2010,09,30,14,45,22.90
2010,09,30,14,46,22.90
2010,09,30,14,47,22.80
2010,09,30,14,48,22.80
2010,09,30,14,49,22.80
2010,09,30,14,50,22.80
2010,09,30,14,51,22.90
2010,09,30,14,52,23.00
2010,09,30,14,53,23.10
2010,09,30,14,54,23.20
2010,09,30,14,55,23.20
2010,09,30,14,56,23.30
2010,09,30,14,57,23.40
2010,09,30,14,58,23.40
2010,09,30,14,59,23.50
2010,09,30,15,00,23.60
2010,09,30,15,01,23.60
2010,09,30,15,02,23.60
2010,09,30,15,03,23.70
2010,09,30,15,04,23.70
2010,09,30,15,05,23.60
2010,09,30,15,06,23.50
2010,09,30,15,07,23.50
2010,09,30,15,08,23.40
2010,09,30,15,09,23.40
2010,09,30,15,10,23.40
2010,09,30,15,11,23.40
2010,09,30,15,12,23.40
2010,09,30,15,13,23.40
2010,09,30,15,14,23.50
2010,09,30,15,15,23.50
2010,09,30,15,16,23.50
2010,09,30,15,17,23.60
2010,09,30,15,18,23.60
2010,09,30,15,19,23.60
2010,09,30,15,20,23.60
2010,09,30,15,21,23.60
2010,09,30,15,22,23.60
2010,09,30,15,23,23.60
2010,09,30,15,24,23.60
2010,09,30,15,25,23.60
2010,09,30,15,26,23.70
2010,09,30,15,27,23.60
2010,09,30,15,28,23.50
2010,09,30,15,29,23.50
2010,09,30,15,30,23.40
2010,09,30,15,31,23.40
2010,09,30,15,32,23.50
2010,09,30,15,33,23.50
2010,09,30,15,34,23.40
2010,09,30,15,35,23.40
2010,09,30,15,36,23.30
2010,09,30,15,37,23.30
2010,09,30,15,38,23.40
2010,09,30,15,39,23.40
2010,09,30,15,40,23.50
2010,09,30,15,41,23.60
2010,09,30,15,42,23.60
2010,09,30,15,43,23.70
2010,09,30,15,44,23.70
2010,09,30,15,45,23.70
2010,09,30,15,46,23.70
2010,09,30,15,47,23.70
2010,09,30,15,48,23.60
2010,09,30,15,49,23.50
2010,09,30,15,50,23.40
2010,09,30,15,51,23.40
2010,09,30,15,52,23.30
2010,09,30,15,53,23.30
2010,09,30,15,54,23.30
2010,09,30,15,55,23.40
2010,09,30,15,56,23.40
2010,09,30,15,57,23.50
2010,09,30,15,58,23.60
2010,09,30,15,59,23.70
2010,09,30,16,00,23.60
2010,09,30,16,01,23.50
2010,09,30,16,02,23.40
2010,09,30,16,03,23.40
2010,09,30,16,04,23.40
2010,09,30,16,05,23.40
2010,09,30,16,06,23.50
2010,09,30,16,07,23.60
2010,09,30,16,08,23.60
2010,09,30,16,09,23.60
2010,09,30,16,10,23.70
2010,09,30,16,11,23.70
2010,09,30,16,12,23.70
2010,09,30,16,13,23.70
2010,09,30,16,14,23.70
2010,09,30,16,15,23.70
2010,09,30,16,16,23.70
2010,09,30,16,17,23.70
2010,09,30,16,18,23.70
2010,09,30,16,19,23.80
2010,09,30,16,20,23.80
2010,09,30,16,21,23.90
2010,09,30,16,22,24.00
2010,09,30,16,23,24.10
2010,09,30,16,24,24.20
2010,09,30,16,25,24.30
2010,09,30,16,26,24.30
2010,09,30,16,27,24.30
2010,09,30,16,28,24.30
2010,09,30,16,29,24.20
2010,09,30,16,30,24.20
2010,09,30,16,31,24.20
2010,09,30,16,32,24.10
2010,09,30,16,33,24.10
2010,09,30,16,34,24.00
2010,09,30,16,35,23.90
2010,09,30,16,36,23.90
2010,09,30,16,37,23.90
2010,09,30,16,38,23.90
2010,09,30,16,39,23.80
2010,09,30,16,40,23.80
2010,09,30,16,41,23.70
2010,09,30,16,42,23.60
2010,09,30,16,43,23.60
2010,09,30,16,44,23.50
2010,09,30,16,45,23.50
2010,09,30,16,46,23.50
2010,09,30,16,47,23.50
2010,09,30,16,48,23.40
2010,09,30,16,49,23.40
2010,09,30,16,50,23.40
2010,09,30,16,51,23.40
2010,09,30,16,52,23.40
2010,09,30,16,53,23.40
2010,09,30,16,54,23.40
2010,09,30,16,55,23.40
2010,09,30,16,56,23.40
2010,09,30,16,57,23.40
2010,09,30,16,58,23.30
2010,09,30,16,59,23.30
2010,09,30,17,00,23.30
2010,09,30,17,01,23.30
2010,09,30,17,02,23.30
2010,09,30,17,03,23.30
2010,09,30,17,04,23.30
2010,09,30,17,05,23.30
2010,09,30,17,06,23.30
2010,09,30,17,07,23.30
2010,09,30,17,08,23.20
2010,09,30,17,09,23.10
2010,09,30,17,10,23.10
2010,09,30,17,11,23.00
2010,09,30,17,12,22.90
2010,09,30,17,13,22.90
2010,09,30,17,14,22.80
2010,09,30,17,15,22.80
2010,09,30,17,16,22.70
2010,09,30,17,17,22.70
2010,09,30,17,18,22.60
2010,09,30,17,19,22.50
2010,09,30,17,20,22.40
2010,09,30,17,21,22.30
2010,09,30,17,22,22.20
2010,09,30,17,23,22.20
2010,09,30,17,24,22.10
2010,09,30,17,25,22.00
2010,09,30,17,26,21.90
2010,09,30,17,27,21.80
2010,09,30,17,28,21.80
2010,09,30,17,29,21.70
2010,09,30,17,30,21.70
2010,09,30,17,31,21.60
2010,09,30,17,32,21.60
2010,09,30,17,33,21.50
2010,09,30,17,34,21.40
2010,09,30,17,35,21.40
2010,09,30,17,36,21.30
2010,09,30,17,37,21.30
2010,09,30,17,38,21.30
2010,09,30,17,39,21.20
2010,09,30,17,40,21.20
2010,09,30,17,41,21.20
2010,09,30,17,42,21.10